TimeMST,TemperatureF,Dew PointF,Humidity,Sea Level PressureIn,VisibilityMPH,Wind Direction,Wind SpeedMPH,Gust SpeedMPH,PrecipitationIn,Events,Conditions,WindDirDegrees,DateUTC
12:48 AM,33.1,30.9,92,29.98,-9999.0,West,4.6,-,N/A,,Unknown,280,2013-03-09 07:48:00
1:48 AM,30.9,30.0,96,29.99,-9999.0,West,8.1,-,N/A,,Unknown,280,2013-03-09 08:48:00
2:48 AM,30.9,28.9,92,29.99,-9999.0,West,9.2,-,N/A,,Unknown,280,2013-03-09 09:48:00
3:48 AM,28.9,28.0,96,29.99,-9999.0,West,8.1,-,N/A,,Unknown,280,2013-03-09 10:48:00
4:48 AM,26.1,25.0,96,30.03,-9999.0,WNW,6.9,-,N/A,,Unknown,290,2013-03-09 11:48:00
5:48 AM,26.1,24.1,92,30.05,-9999.0,WNW,8.1,-,N/A,,Unknown,300,2013-03-09 12:48:00
6:48 AM,23.0,21.9,96,30.08,-9999.0,West,6.9,-,N/A,,Unknown,280,2013-03-09 13:48:00
7:48 AM,27.0,23.0,85,30.09,-9999.0,West,5.8,-,N/A,,Unknown,280,2013-03-09 14:48:00
8:48 AM,30.9,24.1,76,30.09,-9999.0,NW,11.5,-,N/A,,Unknown,320,2013-03-09 15:48:00
9:48 AM,35.1,25.0,67,30.10,-9999.0,NNW,12.7,-,N/A,,Unknown,340,2013-03-09 16:48:00
10:48 AM,37.9,25.0,60,30.10,-9999.0,NW,12.7,-,N/A,,Unknown,310,2013-03-09 17:48:00
11:48 AM,37.0,25.0,62,30.12,-9999.0,North,12.7,-,N/A,,Unknown,350,2013-03-09 18:48:00
12:48 PM,39.0,26.1,60,30.12,-9999.0,NNW,19.6,24.2,N/A,,Unknown,330,2013-03-09 19:48:00
1:48 PM,39.0,23.0,53,30.13,-9999.0,NW,15.0,-,N/A,,Unknown,320,2013-03-09 20:48:00
2:48 PM,39.9,23.0,51,30.14,-9999.0,NNW,23.0,-,N/A,,Unknown,340,2013-03-09 21:48:00
3:48 PM,37.9,23.0,55,30.18,-9999.0,North,19.6,-,N/A,,Unknown,350,2013-03-09 22:48:00
4:48 PM,37.0,21.9,54,30.22,-9999.0,NNW,17.3,-,N/A,,Unknown,330,2013-03-09 23:48:00
5:48 PM,33.1,19.0,56,30.24,-9999.0,NNW,16.1,-,N/A,,Unknown,330,2013-03-10 00:48:00
6:48 PM,30.0,16.0,56,30.29,-9999.0,NW,13.8,-,N/A,,Unknown,320,2013-03-10 01:48:00
7:48 PM,27.0,17.1,66,30.31,-9999.0,NW,4.6,-,N/A,,Unknown,310,2013-03-10 02:48:00
8:48 PM,25.0,18.0,75,30.32,-9999.0,NNW,4.6,-,N/A,,Unknown,330,2013-03-10 03:48:00
9:48 PM,21.9,17.1,82,30.33,-9999.0,NNE,5.8,-,N/A,,Unknown,20,2013-03-10 04:48:00
10:48 PM,21.0,17.1,85,30.32,-9999.0,Calm,Calm,-,N/A,,Unknown,0,2013-03-10 05:48:00
11:48 PM,19.9,17.1,89,30.33,-9999.0,Calm,Calm,-,N/A,,Unknown,0,2013-03-10 06:48:00